Tracking 27126 objects as of 30-Mar-2023
HD Live streaming from Space Station
objects crossing your sky now

STARLINK-3445

Track STARLINK-3445 now!
10-day predictions
STARLINK-3445 is classified as:


NORAD ID: 51717
Int'l Code: 2022-016D
Perigee: 546.1 km
Apogee: 547.7 km
Inclination: 53.2 °
Period: 95.4 minutes
Semi major axis: 6917 km
RCS: Unknown
Launch date: February 21, 2022
Source: United States (US)
Launch site: AIR FORCE EASTERN TEST RANGE (AFETR)
Your satellite tracking list
Your tracking list is empty




NASA's NSSDC Master Catalog

Two Line Element Set (TLE):
1 51717U 22016D   23089.06700656  .00001543  00000-0  11501-3 0  9998
2 51717  53.2149 117.7752 0001213  77.6318 282.4810 15.08837270 62178
Source of the keplerian elements: AFSPC